Regional Weather Roundup
Issued by NWS

Home | Current Version | Previous Version | Text Only | Print | Product List | Glossary Off
Versions: 1 2 3 4 5 6 7 8 9 10 11 12 13 14 15 16 17 18 19 20 21 22 23 24 25 26 27 28 29 30 31 32 33 34 35 36 37 38 39 40 41 42 43 44 45 46 47 48 49 50

000
ASUS43 KDMX 262306
RWRIA

WEATHER ROUNDUP FOR IOWA
NATIONAL WEATHER SERVICE DES MOINES IA
600 PM CDT WED JUL 26 2017

NOTE: "FAIR" INDICATES FEW OR NO CLOUDS BELOW 12,000 FEET WITH NO
SIGNIFICANT WEATHER AND/OR OBSTRUCTIONS TO VISIBILITY.

* - THESE STATIONS ARE NOT NWS STATIONS...THUS NOT UNDER NWS
QUALITY CONTROL.  THEY ALSO DO NOT REPORT WEATHER SUCH
AS PRECIPITATION OR FOG.

IAZ001>003-012>014-020>022-031>034-043>046-270000-
   NORTHWEST IOWA

CITY           SKY/WX    TMP DP  RH WIND       PRES   REMARKS
CARROLL *      CLOUDY    77  73  88 NW5       29.99S
CHEROKEE *     MOSUNNY   83  71  67 E6        30.00R HX  88
DENISON *      CLOUDY    79  72  78 CALM      30.01S HX  82
ORANGE CITY *  SUNNY     82  70  65 NE9       30.01S HX  86
SHELDON *      MOSUNNY   81  70  69 NE9       30.01R HX  84
SIOUX CITY     PTSUNNY   84  71  65 E6        29.99R HX  89
SPENCER        PTSUNNY   79  70  74 E5        30.01S HX  82
STORM LAKE *     N/A     77  72  83 SE5       30.01R
$$

IAZ055>058-069>071-079>083-090>094-270000-
   SOUTHWEST IOWA

CITY           SKY/WX    TMP DP  RH WIND       PRES   REMARKS
ATLANTIC *     DRIZZLE   75  73  94 CALM      30.00R
AUDUBON *      CLOUDY    77  72  83 CALM      30.01R
CLARINDA *     CLOUDY    79  77  94 CALM      30.00S HX  83
COUNCIL BLFS * CLOUDY    73  73 100 NE5       30.00R
CRESTON *      CLOUDY    75  75 100 SE3       30.01R
HARLAN  *      CLOUDY    75  75 100 SW3       30.03S
LAMONI         CLOUDY    80  73  79 SE7       29.98F HX  84
RED OAK *      LGT RAIN  77  75  94 NE3       29.98F
SHENANDOAH *   HVY RAIN  77  75  94 VRB5G15   29.98S
$$

IAZ047>049-059>061-072>074-084-270000-
   CENTRAL IOWA

CITY           SKY/WX    TMP DP  RH WIND       PRES   REMARKS
AMES           CLOUDY    75  75 100 NE5       29.97F
ANKENY *       CLOUDY    79  73  83 CALM      29.97S HX  82
BOONE *        CLOUDY    73  72  94 NE6       29.98R
CHARITON *     LGT RAIN  75  73  94 CALM      29.97F
DES MOINES     CLOUDY    79  71  76 S5        29.96S HX  82
GRINNELL*      CLOUDY    78  70  76 CALM      29.97F HX  80
KNOXVILLE *    CLOUDY    79  72  78 CALM      29.95F HX  82
MARSHALLTOWN   CLOUDY    78  72  81 W3        29.96F HX  80
NEWTON *       CLOUDY    77  72  83 CALM      29.97S
PELLA *        CLOUDY    79  71  75 W3        29.97S HX  82
PERRY *        CLOUDY    76  74  92 CALM      29.98S
$$

IAZ004>006-015-016-023>025-035-036-270000-
   NORTH CENTRAL IOWA

CITY           SKY/WX    TMP DP  RH WIND       PRES   REMARKS
ALGONA *       PTSUNNY   79  72  78 S7        30.00S HX  82
ESTHERVILLE    PTSUNNY   81  71  71 N12       30.00S HX  85
FORT DODGE *   PTSUNNY   73  70  88 E5        30.01S
MASON CITY     CLOUDY    77  67  71 SW8       30.00F
FOREST CITY *  PTSUNNY   77  70  78 SW7       29.99F
WEBSTER CITY * CLOUDY    73  70  88 CALM      29.98S FOG
IOWA FALLS *   CLOUDY    77  70  79 CALM      30.00F
$$

IAZ007>011-017>019-026>030-037>042-050>054-066-270000-
   NORTHEAST IOWA

CITY           SKY/WX    TMP DP  RH WIND       PRES   REMARKS
CHARLES CITY * CLOUDY    77  73  88 W5        29.98S
DECORAH *      CLOUDY    77  70  78 CALM      29.95F
DUBUQUE        CLOUDY    78  74  87 NE7       29.97S HX  81
MONTICELLO *   CLOUDY    79  73  83 S13G21    29.96R HX  82
OELWEIN *      CLOUDY    79  72  78 SE7       29.97R HX  82
WATERLOO       CLOUDY    78  67  68 SE5       29.95F HX  80
$$

IAZ064-065-067-068-078-270000-
   EAST CENTRAL IOWA

CITY           SKY/WX    TMP DP  RH WIND       PRES   REMARKS
DAVENPORT      TSTM      81  77  88 SW8       29.95F HX  88
IOWA CITY      CLOUDY    76  70  82 CALM      29.96S
MT. PLEASANT * CLOUDY    73  73 100 SE3       29.95F
MUSCATINE *    CLOUDY    73  72  94 NW8       29.95R
QUAD CITIES    CLOUDY    83  77  82 W3        29.92F HX  92
$$

IAZ062-063-075>077-085>089-095>099-270000-
   SOUTHEAST IOWA

CITY           SKY/WX    TMP DP  RH WIND       PRES   REMARKS
BURLINGTON     TSTM      74  73  97 CALM      29.97R FOG
FAIRFIELD *    CLOUDY    79  72  78 CALM      29.95S HX  82
FORT MADISON * CLOUDY    73  73 100 E7        29.97S
KEOKUK *       LGT RAIN  75  72  88 NE5       29.94S
OSKALOOSA *    CLOUDY    80  71  74 NW3       29.96S HX  83
CENTERVILLE *    N/A     81  73  78 CALM      30.00R HX  85
OTTUMWA        CLOUDY    82  73  74 NW8       29.95S HX  87
$$

ABBREVIATIONS USED IN REMARKS
   TC - TEMPERATURES IN CELSIUS
  WCI - WIND CHILL INDEX
   HX - HEAT INDEX
  VSB - VISIBILITY
$$





USA.gov is the U.S. government's official web portal to all federal, state and local government web resources and services.